Location: Pensacola
(30.4142°N, 87.2155°W)
Time: 21:10:16
(UTC-06:00)

Tiangong - Visible Passes

Search period start: 31 January 2023 00:00
Search period end: 10 February 2023 00:00
Orbit: 383 x 386 km, 41.5° (Epoch: 31 January)

Date Brightness Start Highest point End Pass type
(mag) Time Alt. Az. Time Alt. Az. Time Alt. Az.
31 Jan -1.8 18:15:49 10° WNW 18:18:57 63° SSW 18:22:03 10° SE visible
01 Feb 0.9 18:54:13 10° WSW 18:55:54 14° SW 18:57:36 10° S visible
02 Feb 0.0 17:53:40 10° W 17:56:25 28° SW 17:59:11 10° SSE visible
09 Feb 1.2 06:04:52 10° SSE 06:06:00 11° SE 06:07:09 10° ESE visible
